This demonstration page uses our WeatherBlox Daily Observations layout. Learn more.

Left ArrowRight Arrow

Hourly Observations for May 11, 2015

Temp ( °F °C ) Dew Point ( °F °C ) Humidity (%) Winds ( mph kmh ) Pressure ( in mb ) Visibility ( mi km ) Precip ( " mm )
12:58 am 00:58 Clear 48 8.9 39 3.9 71 71 W 15 24 29.87 1011 10 16 0.00 0.00
1:18 am 01:18 Mostly Cloudy 48 9 39 4 71 71 W 10 17 29.88 1012 10 16 0.00 0.00
1:58 am 01:58 Cloudy 47 8.6 38 3.5 71 71 W 13 20 29.88 1012 10 16 0.00 0.00
2:58 am 02:58 Cloudy 46 7.8 36 2.4 69 69 W 14 22 29.86 1011 10 16 0.00 0.00
3:58 am 03:58 Cloudy 45 7.1 35 1.8 69 69 W 10 17 29.87 1012 10 16 0.00 0.00
4:58 am 04:58 Cloudy 44 6.9 35 1.4 68 68 W 9 15 29.88 1012 10 16 0.00 0.00
5:58 am 05:58 Cloudy 44 6.7 35 1.4 69 69 W 13 20 29.89 1012 10 16 0.00 0.00
6:58 am 06:58 Cloudy 45 7 35 1.6 69 69 W 13 20 29.89 1012 10 16 0.00 0.00
7:58 am 07:58 Cloudy 46 7.7 35 1.7 66 66 W 17 28 29.89 1012 10 16 0.00 0.00
8:43 am 08:43 Cloudy 46 8 36 2 66 66 W 20 31 29.88 1012 10 16 0.00 0.00
8:58 am 08:58 Cloudy 48 8.7 36 2.1 64 64 WNW 22 35 29.90 1013 10 16 0.00 0.00
9:58 am 09:58 Cloudy 49 9.2 36 2.2 62 62 WNW 17 28 29.92 1013 10 16 0.00 0.00
10:58 am 10:58 Cloudy 49 9.7 37 2.7 62 62 WNW 18 30 29.93 1013 10 16 0.00 0.00
11:58 am 11:58 Cloudy 50 9.9 37 2.8 62 62 W 18 30 29.95 1014 10 16 0.00 0.00
12:58 pm 12:58 Cloudy 50 9.9 37 2.6 61 61 W 18 30 29.97 1015 10 16 0.00 0.00
1:58 pm 13:58 Cloudy 51 10.3 37 2.5 59 59 W 18 30 29.97 1015 10 16 0.00 0.00
2:58 pm 14:58 Cloudy 51 10.8 37 2.8 58 58 W 17 28 29.98 1015 10 16 0.00 0.00
3:58 pm 15:58 Cloudy 52 11 38 3.1 59 59 W 16 26 29.99 1016 10 16 0.00 0.00
4:58 pm 16:58 Cloudy 52 11 38 3.2 59 59 W 22 35 30.01 1016 10 16 0.00 0.00
5:58 pm 17:58 Cloudy 51 10.6 38 3.1 60 60 W 16 26 30.03 1017 10 16 0.00 0.00
6:58 pm 18:58 Cloudy 51 10.5 38 3.2 61 61 W 13 20 30.05 1018 10 16 0.00 0.00
7:58 pm 19:58 Cloudy 51 10.3 37 2.7 60 60 WNW 21 33 30.08 1019 10 16 0.00 0.00
8:58 pm 20:58 Cloudy 50 10 37 2.7 61 61 W 13 20 30.09 1019 10 16 0.00 0.00
9:58 pm 21:58 Cloudy 49 9.7 37 2.7 62 62 W 8 13 30.11 1020 10 16 0.00 0.00
10:58 pm 22:58 Clear 47 8.5 37 2.7 67 67 W 8 13 30.12 1020 10 16 0.00 0.00
11:58 pm 23:58 Clear 46 7.6 37 2.7 71 71 W 6 9 30.13 1020 10 16 0.00 0.00

Powered by AerisWeather